EAG5510 SBGL-SBGO

Flight info

Callsign EAG5510
Flight time 1h 21m
Altitude 36000
Route EDNAM UM409 MIMIP UZ8 DEXED/N0473F350 DCT SIRUL
Aircraft B738/M-SDE2E3FGHIRWXY/LB1

Departure

Time 2026-05-01 11:15
Airport Rio Galeão – Tom Jobim International Airport (SBGL)

Arrival

Time 2026-05-01 12:36
Airport Santa Genoveva International Airport (SBGO)
Time Latitude Longitude Altitude Speed Heading
2026-05-01 10:54 -22.81166 -43.25287 21 ft 0 kts 56°
2026-05-01 11:06 -22.81175 -43.25301 24 ft 2 kts 56°
2026-05-01 11:07 -22.81194 -43.25330 21 ft 2 kts 45°
2026-05-01 11:07 -22.81207 -43.25336 21 ft 1 kts 329°
2026-05-01 11:07 -22.81209 -43.25335 21 ft 0 kts 327°
2026-05-01 11:10 -22.81182 -43.25351 21 ft 6 kts 332°
2026-05-01 11:10 -22.81118 -43.25376 21 ft 13 kts 347°
2026-05-01 11:10 -22.81034 -43.25384 21 ft 11 kts
2026-05-01 11:11 -22.80974 -43.25387 22 ft 8 kts 332°
2026-05-01 11:11 -22.80943 -43.25435 23 ft 8 kts 296°
2026-05-01 11:11 -22.80918 -43.25495 27 ft 11 kts 296°
2026-05-01 11:11 -22.80879 -43.25583 27 ft 15 kts 297°
2026-05-01 11:12 -22.80830 -43.25664 28 ft 9 kts 313°
2026-05-01 11:12 -22.80770 -43.25681 26 ft 10 kts 18°
2026-05-01 11:12 -22.80705 -43.25636 25 ft 11 kts 36°
2026-05-01 11:12 -22.80639 -43.25585 24 ft 13 kts 35°
2026-05-01 11:13 -22.80572 -43.25537 27 ft 11 kts 26°
2026-05-01 11:13 -22.80502 -43.25551 30 ft 11 kts 328°
2026-05-01 11:13 -22.80450 -43.25589 29 ft 8 kts 326°
2026-05-01 11:13 -22.80398 -43.25614 28 ft 9 kts 358°
2026-05-01 11:14 -22.80326 -43.25575 29 ft 14 kts 37°
2026-05-01 11:14 -22.80243 -43.25508 25 ft 15 kts 32°
2026-05-01 11:14 -22.80172 -43.25446 26 ft 13 kts 71°
2026-05-01 11:14 -22.80135 -43.25305 26 ft 44 kts 74°
2026-05-01 11:15 -22.79982 -43.24715 30 ft 116 kts 74°
2026-05-01 11:15 -22.79703 -43.23654 61 ft 172 kts 73°
2026-05-01 11:15 -22.79384 -43.22328 733 ft 180 kts 76°
2026-05-01 11:15 -22.79101 -43.21055 1824 ft 172 kts 75°
2026-05-01 11:16 -22.78812 -43.19752 2449 ft 190 kts 76°
2026-05-01 11:16 -22.78478 -43.18240 2728 ft 220 kts 76°
2026-05-01 11:16 -22.78109 -43.16540 3063 ft 240 kts 76°
2026-05-01 11:16 -22.77718 -43.14722 3491 ft 259 kts 76°
2026-05-01 11:17 -22.77304 -43.12781 4201 ft 268 kts 76°
2026-05-01 11:17 -22.76884 -43.10804 5079 ft 271 kts 76°
2026-05-01 11:17 -22.76460 -43.08800 5939 ft 274 kts 77°
2026-05-01 11:17 -22.76032 -43.06778 6805 ft 276 kts 77°
2026-05-01 11:18 -22.75746 -43.05428 7308 ft 279 kts 77°
2026-05-01 11:18 -22.75152 -43.02653 8321 ft 286 kts 74°
2026-05-01 11:18 -22.74641 -43.01336 8815 ft 289 kts 56°
2026-05-01 11:18 -22.73193 -42.99832 9587 ft 292 kts 28°
2026-05-01 11:19 -22.71249 -42.99206 10323 ft 296 kts
2026-05-01 11:19 -22.69186 -42.99612 10663 ft 315 kts 334°
2026-05-01 11:19 -22.67215 -43.00812 10857 ft 337 kts 327°
2026-05-01 11:19 -22.65015 -43.01883 10996 ft 359 kts 344°
2026-05-01 11:20 -22.62544 -43.02648 11203 ft 377 kts 342°
2026-05-01 11:20 -22.60032 -43.03564 11644 ft 384 kts 340°
2026-05-01 11:20 -22.57507 -43.04551 12263 ft 386 kts 339°
2026-05-01 11:20 -22.54982 -43.05553 12892 ft 388 kts 339°
2026-05-01 11:21 -22.52435 -43.06561 13504 ft 390 kts 339°
2026-05-01 11:21 -22.49876 -43.07570 14033 ft 392 kts 339°
2026-05-01 11:21 -22.47338 -43.08568 14150 ft 393 kts 339°
2026-05-01 11:21 -22.44757 -43.09581 14186 ft 395 kts 339°
2026-05-01 11:22 -22.42171 -43.10596 14182 ft 395 kts 339°
2026-05-01 11:22 -22.39591 -43.11608 14191 ft 395 kts 339°
2026-05-01 11:22 -22.37008 -43.12621 14199 ft 395 kts 339°
2026-05-01 11:22 -22.34414 -43.13639 14196 ft 396 kts 339°
2026-05-01 11:23 -22.31827 -43.14653 14196 ft 396 kts 339°
2026-05-01 11:23 -22.29235 -43.15669 14198 ft 396 kts 339°
2026-05-01 11:23 -22.26642 -43.16684 14198 ft 396 kts 339°
2026-05-01 11:23 -22.24053 -43.17698 14196 ft 396 kts 339°
2026-05-01 11:24 -22.21466 -43.18710 14197 ft 395 kts 339°
2026-05-01 11:24 -22.18879 -43.19723 14208 ft 395 kts 339°
2026-05-01 11:24 -22.13778 -43.21964 14279 ft 400 kts 330°
2026-05-01 11:25 -22.11382 -43.23477 14862 ft 398 kts 328°
2026-05-01 11:25 -22.06648 -43.26563 15993 ft 400 kts 327°
2026-05-01 11:25 -22.04247 -43.28108 16462 ft 404 kts 327°
2026-05-01 11:26 -22.01817 -43.29651 16925 ft 406 kts 328°
2026-05-01 11:26 -21.96891 -43.32745 17918 ft 411 kts 328°
2026-05-01 11:26 -21.94413 -43.34294 18370 ft 413 kts 328°
2026-05-01 11:27 -21.91925 -43.35849 18746 ft 415 kts 328°
2026-05-01 11:27 -21.89422 -43.37413 19115 ft 417 kts 327°
2026-05-01 11:27 -21.86905 -43.38986 19489 ft 419 kts 328°
2026-05-01 11:27 -21.84408 -43.40545 19860 ft 421 kts 328°
2026-05-01 11:28 -21.81869 -43.42130 20215 ft 423 kts 328°
2026-05-01 11:28 -21.79312 -43.43726 20559 ft 425 kts 328°
2026-05-01 11:28 -21.76746 -43.45326 20904 ft 427 kts 328°
2026-05-01 11:29 -21.71583 -43.48545 21590 ft 431 kts 328°
2026-05-01 11:29 -21.68980 -43.50166 21910 ft 433 kts 328°
2026-05-01 11:29 -21.63740 -43.53430 22525 ft 437 kts 328°
2026-05-01 11:30 -21.61103 -43.55071 22822 ft 439 kts 328°
2026-05-01 11:30 -21.58452 -43.56720 23112 ft 441 kts 328°
2026-05-01 11:30 -21.55791 -43.58374 23400 ft 443 kts 328°
2026-05-01 11:30 -21.53113 -43.60036 23683 ft 445 kts 328°
2026-05-01 11:31 -21.50422 -43.61706 23924 ft 447 kts 328°
2026-05-01 11:31 -21.47724 -43.63379 24158 ft 448 kts 328°
2026-05-01 11:31 -21.45050 -43.65037 24387 ft 450 kts 328°
2026-05-01 11:31 -21.42339 -43.66717 24606 ft 452 kts 328°
2026-05-01 11:32 -21.39611 -43.68407 24810 ft 453 kts 328°
2026-05-01 11:32 -21.36871 -43.70105 25028 ft 455 kts 328°
2026-05-01 11:32 -21.34126 -43.71805 25249 ft 456 kts 328°
2026-05-01 11:32 -21.31370 -43.73511 25460 ft 458 kts 328°
2026-05-01 11:33 -21.28604 -43.75221 25645 ft 460 kts 328°
2026-05-01 11:33 -21.25826 -43.76945 25843 ft 461 kts 327°
2026-05-01 11:33 -21.23069 -43.78713 26050 ft 462 kts 327°
2026-05-01 11:33 -21.20317 -43.80517 26248 ft 464 kts 326°
2026-05-01 11:34 -21.17564 -43.82335 26432 ft 466 kts 326°
2026-05-01 11:34 -21.14802 -43.84157 26619 ft 467 kts 326°
2026-05-01 11:34 -21.12031 -43.85978 26809 ft 468 kts 327°
2026-05-01 11:34 -21.09245 -43.87803 26991 ft 470 kts 327°
2026-05-01 11:35 -21.06449 -43.89631 27159 ft 472 kts 327°
2026-05-01 11:35 -21.03639 -43.91464 27325 ft 473 kts 327°
2026-05-01 11:35 -21.00856 -43.93278 27505 ft 474 kts 327°
2026-05-01 11:35 -20.98036 -43.95114 27671 ft 476 kts 327°
2026-05-01 11:36 -20.95205 -43.96958 27858 ft 476 kts 327°
2026-05-01 11:36 -20.92375 -43.98800 28116 ft 476 kts 327°
2026-05-01 11:36 -20.89551 -44.00638 28411 ft 474 kts 327°
2026-05-01 11:36 -20.86736 -44.02469 28702 ft 473 kts 327°
2026-05-01 11:37 -20.83925 -44.04298 28941 ft 473 kts 327°
2026-05-01 11:37 -20.81111 -44.06128 29190 ft 473 kts 327°
2026-05-01 11:37 -20.78294 -44.07958 29469 ft 473 kts 327°
2026-05-01 11:37 -20.75483 -44.09779 29755 ft 472 kts 327°
2026-05-01 11:38 -20.72669 -44.11589 30029 ft 472 kts 327°
2026-05-01 11:38 -20.69858 -44.13407 30332 ft 471 kts 327°
2026-05-01 11:38 -20.67061 -44.15232 30589 ft 470 kts 327°
2026-05-01 11:38 -20.64271 -44.17054 30843 ft 470 kts 327°
2026-05-01 11:39 -20.61478 -44.18865 31082 ft 470 kts 327°
2026-05-01 11:39 -20.58671 -44.20663 31337 ft 470 kts 327°
2026-05-01 11:39 -20.55868 -44.22451 31619 ft 469 kts 327°
2026-05-01 11:39 -20.53069 -44.24236 31902 ft 468 kts 327°
2026-05-01 11:40 -20.50317 -44.25995 32154 ft 468 kts 327°
2026-05-01 11:40 -20.47528 -44.27778 32411 ft 467 kts 327°
2026-05-01 11:40 -20.44741 -44.29560 32696 ft 467 kts 327°
2026-05-01 11:40 -20.41960 -44.31343 32986 ft 466 kts 327°
2026-05-01 11:41 -20.39191 -44.33130 33274 ft 465 kts 326°
2026-05-01 11:41 -20.36430 -44.34919 33575 ft 465 kts 326°
2026-05-01 11:41 -20.33662 -44.36712 33862 ft 464 kts 326°
2026-05-01 11:41 -20.30905 -44.38496 34166 ft 463 kts 326°
2026-05-01 11:42 -20.28148 -44.40278 34408 ft 463 kts 326°
2026-05-01 11:42 -20.25401 -44.42052 34658 ft 462 kts 326°
2026-05-01 11:42 -20.22654 -44.43824 34917 ft 461 kts 326°
2026-05-01 11:42 -20.19918 -44.45589 35177 ft 460 kts 326°
2026-05-01 11:43 -20.17182 -44.47354 35404 ft 459 kts 326°
2026-05-01 11:43 -20.14443 -44.49119 35627 ft 459 kts 326°
2026-05-01 11:43 -20.11711 -44.50875 35883 ft 458 kts 327°
2026-05-01 11:44 -20.06247 -44.54367 36175 ft 460 kts 327°
2026-05-01 11:44 -20.03501 -44.56119 36186 ft 461 kts 327°
2026-05-01 11:44 -19.98054 -44.59594 36194 ft 458 kts 327°
2026-05-01 11:45 -19.92609 -44.63067 36190 ft 456 kts 327°
2026-05-01 11:45 -19.87182 -44.66527 36197 ft 454 kts 327°
2026-05-01 11:46 -19.81767 -44.69978 36182 ft 453 kts 327°
2026-05-01 11:46 -19.76354 -44.73424 36194 ft 454 kts 327°
2026-05-01 11:47 -19.70929 -44.76876 36180 ft 455 kts 327°
2026-05-01 11:47 -19.65490 -44.80333 36192 ft 456 kts 327°
2026-05-01 11:48 -19.60027 -44.83803 36183 ft 458 kts 327°
2026-05-01 11:48 -19.54809 -44.87649 36181 ft 456 kts 312°
2026-05-01 11:49 -19.51324 -44.93136 36166 ft 453 kts 290°
2026-05-01 11:49 -19.49244 -44.99445 36182 ft 454 kts 288°
2026-05-01 11:50 -19.47217 -45.05796 36170 ft 455 kts 288°
2026-05-01 11:50 -19.45134 -45.12143 36178 ft 456 kts 289°
2026-05-01 11:51 -19.43018 -45.18490 36176 ft 457 kts 289°
2026-05-01 11:51 -19.40896 -45.24832 36175 ft 457 kts 289°
2026-05-01 11:52 -19.38772 -45.31180 36173 ft 457 kts 289°
2026-05-01 11:52 -19.36660 -45.37485 36173 ft 457 kts 289°
2026-05-01 11:53 -19.34536 -45.43825 36174 ft 457 kts 289°
2026-05-01 11:53 -19.32406 -45.50166 36176 ft 456 kts 289°
2026-05-01 11:54 -19.30270 -45.56506 36176 ft 456 kts 289°
2026-05-01 11:54 -19.28138 -45.62828 36177 ft 456 kts 289°
2026-05-01 11:55 -19.26002 -45.69153 36181 ft 456 kts 289°
2026-05-01 11:55 -19.23883 -45.75425 36180 ft 455 kts 289°
2026-05-01 11:56 -19.21748 -45.81734 36180 ft 455 kts 289°
2026-05-01 11:56 -19.19612 -45.88041 36184 ft 455 kts 289°
2026-05-01 11:57 -19.17835 -45.93281 36186 ft 455 kts 289°
2026-05-01 11:57 -19.15332 -46.00650 36189 ft 455 kts 289°
2026-05-01 11:58 -19.13191 -46.06951 36191 ft 455 kts 289°
2026-05-01 11:59 -19.09975 -46.16406 36189 ft 455 kts 289°
2026-05-01 11:59 -19.07830 -46.22704 36184 ft 455 kts 289°
2026-05-01 12:00 -19.04619 -46.32115 36186 ft 456 kts 289°
2026-05-01 12:01 -19.01388 -46.41571 36183 ft 456 kts 289°
2026-05-01 12:01 -18.99227 -46.47884 36182 ft 456 kts 289°
2026-05-01 12:02 -18.97068 -46.54183 36187 ft 456 kts 289°
2026-05-01 12:02 -18.94907 -46.60485 36183 ft 456 kts 289°
2026-05-01 12:03 -18.93117 -46.65731 36179 ft 456 kts 288°
2026-05-01 12:03 -18.90761 -46.73124 36180 ft 457 kts 288°
2026-05-01 12:04 -18.88762 -46.79489 36174 ft 457 kts 288°
2026-05-01 12:04 -18.87070 -46.84829 36186 ft 457 kts 288°
2026-05-01 12:05 -18.85043 -46.91185 36174 ft 457 kts 288°
2026-05-01 12:05 -18.81995 -47.00719 36172 ft 457 kts 288°
2026-05-01 12:06 -18.79973 -47.07036 36167 ft 457 kts 288°
2026-05-01 12:06 -18.77934 -47.13400 36166 ft 457 kts 288°
2026-05-01 12:07 -18.75893 -47.19763 36162 ft 457 kts 288°
2026-05-01 12:07 -18.73852 -47.26114 36161 ft 457 kts 288°
2026-05-01 12:08 -18.71806 -47.32474 36166 ft 457 kts 288°
2026-05-01 12:08 -18.69762 -47.38826 36156 ft 457 kts 288°
2026-05-01 12:09 -18.67715 -47.45177 36160 ft 457 kts 288°
2026-05-01 12:09 -18.65668 -47.51523 36157 ft 457 kts 288°
2026-05-01 12:10 -18.62608 -47.60992 36154 ft 457 kts 288°
2026-05-01 12:11 -18.59526 -47.70501 36150 ft 456 kts 288°
2026-05-01 12:11 -18.57458 -47.76828 36145 ft 456 kts 288°
2026-05-01 12:12 -18.55387 -47.83156 36149 ft 456 kts 288°
2026-05-01 12:12 -18.53314 -47.89490 36143 ft 457 kts 288°
2026-05-01 12:13 -18.51241 -47.95818 36145 ft 457 kts 288°
2026-05-01 12:13 -18.49166 -48.02146 36145 ft 457 kts 289°
2026-05-01 12:14 -18.47101 -48.08437 36144 ft 457 kts 289°
2026-05-01 12:14 -18.45019 -48.14763 36141 ft 457 kts 289°
2026-05-01 12:15 -18.42922 -48.21097 36132 ft 458 kts 289°
2026-05-01 12:15 -18.41595 -48.24138 36120 ft 458 kts 304°
2026-05-01 12:15 -18.39494 -48.26658 36148 ft 459 kts 318°
2026-05-01 12:16 -18.36854 -48.28555 36127 ft 461 kts 333°
2026-05-01 12:16 -18.33880 -48.29813 36155 ft 462 kts 339°
2026-05-01 12:16 -18.27799 -48.32040 36138 ft 463 kts 340°
2026-05-01 12:17 -18.21737 -48.34252 36127 ft 464 kts 339°
2026-05-01 12:17 -18.15652 -48.36537 36131 ft 465 kts 339°
2026-05-01 12:18 -18.12590 -48.37700 35673 ft 472 kts 339°
2026-05-01 12:18 -18.09495 -48.38878 35077 ft 471 kts 339°
2026-05-01 12:18 -18.06410 -48.40053 34305 ft 472 kts 339°
2026-05-01 12:18 -18.03319 -48.41228 33519 ft 473 kts 339°
2026-05-01 12:19 -18.00217 -48.42407 32752 ft 474 kts 339°
2026-05-01 12:19 -17.97110 -48.43586 31977 ft 475 kts 340°
2026-05-01 12:19 -17.93993 -48.44768 31192 ft 477 kts 340°
2026-05-01 12:19 -17.90861 -48.45955 30355 ft 480 kts 340°
2026-05-01 12:20 -17.87707 -48.47150 29379 ft 482 kts 340°
2026-05-01 12:20 -17.84546 -48.48348 28428 ft 483 kts 340°
2026-05-01 12:20 -17.81377 -48.49547 27462 ft 485 kts 340°
2026-05-01 12:20 -17.78202 -48.50749 26661 ft 483 kts 341°
2026-05-01 12:21 -17.75091 -48.51927 25986 ft 478 kts 341°
2026-05-01 12:21 -17.71979 -48.53105 25300 ft 474 kts 341°
2026-05-01 12:21 -17.68910 -48.54368 24581 ft 472 kts 338°
2026-05-01 12:21 -17.65919 -48.55778 23879 ft 470 kts 336°
2026-05-01 12:22 -17.62974 -48.57240 23095 ft 467 kts 335°
2026-05-01 12:22 -17.60050 -48.58696 22372 ft 463 kts 336°
2026-05-01 12:22 -17.57147 -48.60121 21685 ft 458 kts 336°
2026-05-01 12:22 -17.54269 -48.61512 21010 ft 453 kts 336°
2026-05-01 12:23 -17.51414 -48.62879 20357 ft 449 kts 337°
2026-05-01 12:23 -17.48577 -48.64233 19673 ft 446 kts 337°
2026-05-01 12:23 -17.45760 -48.65577 19007 ft 443 kts 336°
2026-05-01 12:23 -17.42963 -48.66913 18327 ft 441 kts 337°
2026-05-01 12:24 -17.40195 -48.68235 17579 ft 432 kts 337°
2026-05-01 12:24 -17.37472 -48.69535 16938 ft 428 kts 337°
2026-05-01 12:24 -17.34772 -48.70824 16289 ft 425 kts 337°
2026-05-01 12:24 -17.32097 -48.72101 15634 ft 419 kts 337°
2026-05-01 12:25 -17.29489 -48.73344 15015 ft 416 kts 337°
2026-05-01 12:25 -17.24245 -48.75845 13692 ft 407 kts 338°
2026-05-01 12:25 -17.21680 -48.77069 13033 ft 404 kts 338°
2026-05-01 12:26 -17.19129 -48.78285 12402 ft 401 kts 338°
2026-05-01 12:26 -17.14084 -48.80685 11347 ft 391 kts 338°
2026-05-01 12:26 -17.11644 -48.81849 11135 ft 379 kts 338°
2026-05-01 12:27 -17.09301 -48.82967 10816 ft 361 kts 338°
2026-05-01 12:27 -17.04940 -48.85043 10292 ft 329 kts 338°
2026-05-01 12:28 -17.00975 -48.86928 9996 ft 298 kts 339°
2026-05-01 12:28 -16.99140 -48.87799 9768 ft 289 kts 339°
2026-05-01 12:28 -16.95506 -48.89519 9179 ft 285 kts 339°
2026-05-01 12:29 -16.93702 -48.90373 8890 ft 284 kts 339°
2026-05-01 12:29 -16.91903 -48.91226 8614 ft 282 kts 339°
2026-05-01 12:29 -16.88344 -48.92916 8031 ft 279 kts 339°
2026-05-01 12:30 -16.84839 -48.94574 7694 ft 271 kts 340°
2026-05-01 12:30 -16.83140 -48.95381 7577 ft 263 kts 340°
2026-05-01 12:30 -16.81537 -48.96146 7488 ft 245 kts 340°
2026-05-01 12:31 -16.80036 -48.96858 7375 ft 229 kts 341°
2026-05-01 12:31 -16.78627 -48.97506 7235 ft 216 kts 342°
2026-05-01 12:31 -16.77270 -48.98148 7034 ft 212 kts 340°
2026-05-01 12:31 -16.76092 -48.99102 6840 ft 224 kts 311°
2026-05-01 12:32 -16.75246 -49.00491 6582 ft 230 kts 304°
2026-05-01 12:32 -16.73665 -49.03389 6006 ft 228 kts 304°
2026-05-01 12:32 -16.72890 -49.04801 5729 ft 221 kts 304°
2026-05-01 12:33 -16.72134 -49.06173 5473 ft 216 kts 306°
2026-05-01 12:33 -16.71378 -49.07531 5228 ft 216 kts 306°
2026-05-01 12:33 -16.70635 -49.08876 4981 ft 217 kts 306°
2026-05-01 12:33 -16.69870 -49.10217 4705 ft 212 kts 304°
2026-05-01 12:34 -16.69139 -49.11515 4490 ft 202 kts 305°
2026-05-01 12:34 -16.68452 -49.12747 4300 ft 189 kts 304°
2026-05-01 12:34 -16.67801 -49.13900 4067 ft 183 kts 304°
2026-05-01 12:34 -16.67171 -49.15028 3819 ft 175 kts 304°
2026-05-01 12:35 -16.66556 -49.16117 3570 ft 172 kts 301°
2026-05-01 12:35 -16.65959 -49.17186 3380 ft 172 kts 302°
2026-05-01 12:35 -16.65362 -49.18244 3115 ft 167 kts 301°
2026-05-01 12:35 -16.64789 -49.19274 2871 ft 161 kts 300°
2026-05-01 12:36 -16.64231 -49.20265 2669 ft 156 kts 300°
2026-05-01 12:36 -16.63689 -49.21232 2479 ft 150 kts 300°
2026-05-01 12:36 -16.63227 -49.22054 2453 ft 102 kts 300°
2026-05-01 12:36 -16.63022 -49.22420 2456 ft 30 kts 300°
2026-05-01 12:37 -16.62950 -49.22524 2459 ft 14 kts 316°
2026-05-01 12:37 -16.62892 -49.22576 2460 ft 8 kts 322°
2026-05-01 12:37 -16.62848 -49.22607 2458 ft 8 kts 330°
2026-05-01 12:37 -16.62803 -49.22634 2463 ft 7 kts 330°
2026-05-01 12:38 -16.62756 -49.22643 2458 ft 7 kts 17°
2026-05-01 12:38 -16.62735 -49.22600 2458 ft 7 kts 98°
2026-05-01 12:38 -16.62757 -49.22551 2458 ft 7 kts 120°
2026-05-01 12:38 -16.62782 -49.22506 2459 ft 7 kts 120°
2026-05-01 12:39 -16.62807 -49.22463 2459 ft 7 kts 121°
2026-05-01 12:39 -16.62832 -49.22418 2455 ft 8 kts 120°
2026-05-01 12:39 -16.62864 -49.22361 2459 ft 11 kts 120°
2026-05-01 12:39 -16.62908 -49.22282 2453 ft 14 kts 121°
2026-05-01 12:40 -16.62961 -49.22186 2448 ft 17 kts 118°
2026-05-01 12:40 -16.62988 -49.22105 2443 ft 12 kts 100°
2026-05-01 12:40 -16.62989 -49.22009 2447 ft 14 kts 81°
2026-05-01 12:40 -16.62975 -49.21939 2444 ft 9 kts 78°
2026-05-01 12:41 -16.62963 -49.21876 2450 ft 9 kts 78°
2026-05-01 12:41 -16.62951 -49.21815 2451 ft 8 kts 75°
2026-05-01 12:41 -16.62936 -49.21757 2455 ft 8 kts 75°
2026-05-01 12:41 -16.62923 -49.21700 2461 ft 8 kts 77°
2026-05-01 12:42 -16.62922 -49.21645 2462 ft 8 kts 110°
2026-05-01 12:42 -16.62965 -49.21615 2461 ft 8 kts 157°
2026-05-01 12:42 -16.63016 -49.21588 2461 ft 9 kts 152°
2026-05-01 12:42 -16.63062 -49.21557 2462 ft 7 kts 142°
2026-05-01 12:43 -16.63074 -49.21523 2467 ft 6 kts 54°
2026-05-01 12:43 -16.63054 -49.21500 2461 ft 2 kts 49°
2026-05-01 12:43 -16.63044 -49.21488 2461 ft 2 kts 49°
2026-05-01 12:43 -16.63039 -49.21481 2461 ft 0 kts 49°